Covington, KY

7:01 PM EDT on August 18, 2017 (GMT -0400)
Cincinnati-Northern KY International

Weather History for KCVG - October, 2010

Change the Weather History Date:

Monday, October 11, 2010

  Actual Average Record
Temperature  
Mean Temperature 70 °F 57 °F  
Max Temperature 87 °F 68 °F 88 °F (1963)
Min Temperature 52 °F 47 °F 25 °F (1964)
Degree Days  
Heating Degree Days 0 8  
Month to date heating degree days 67 77  
Since 1 July heating degree days 95 135  
Cooling Degree Days 5 1  
Month to date cooling degree days 8 13  
Year to date cooling degree days 1473 1118  
Growing Degree Days 19 (Base 50)    
Moisture  
Dew Point 46 °F    
Average Humidity 52    
Maximum Humidity 83    
Minimum Humidity 21    
Precipitation  
Precipitation 0.00 in 0.11 in 0.81 in (1919)
Month to date precipitation 0.04 1.15  
Year to date precipitation 26.52 33.57  
Snow  
Snow 0.00 in 0.10 in 0.00 in ()
Month to date snowfall 0.0 0.1  
Since 1 July snowfall 0.0 0.1  
Since 1 September snowfall 0.0 0.1  
Snow Depth 0.00 in    
Sea Level Pressure  
Sea Level Pressure 29.86 in    
Wind  
Wind Speed 5 mph (WSW)    
Max Wind Speed 17 mph    
Max Gust Speed 23 mph    
Visibility 10 miles    
Events      
T = Trace of Precipitation, MM = Missing Value Source: NWS Daily Summary

Daily Weather History Graph

Daily Weather History Graph

Search for Another Location

Airport or City:

Trip Planner

Search our weather history database for the weather conditions in past years. The results will help you decide how hot, cold, wet, or windy it might be!

Date:

Astronomy

Oct. 11, 2010 Rise Set
Actual Time 7:44 AM EDT 7:05 PM EDT
Civil Twilight 7:17 AM EDT 7:32 PM EDT
Nautical Twilight 6:46 AM EDT 8:03 PM EDT
Astronomical Twilight 6:15 AM EDT 8:34 PM EDT
Moon 12:17 PM EDT (10/11) 9:45 PM EDT (10/11)
Length of Visible Light 12h 15m
Length of Day
11h 21m
Waxing Crescent, 19% of the Moon is Illuminated
Oct 11
Waxing Crescent
Oct 14
First Quarter
Oct 22
Full
Oct 30
Last Quarter
Nov 6
New

Hourly Weather History & Observations

Time (EDT) Temp. Dew Point Humidity Pressure Visibility Wind Dir Wind Speed Gust Speed Precip Events Conditions
12:52 AM 62.1 °F 46.0 °F 56% 29.88 in 10.0 mi Calm Calm - N/A   Partly Cloudy
1:52 AM 59.0 °F 46.9 °F 64% 29.88 in 10.0 mi Calm Calm - N/A   Scattered Clouds
2:52 AM 55.9 °F 48.0 °F 75% 29.88 in 10.0 mi South 3.5 mph - N/A   Scattered Clouds
3:52 AM 57.9 °F 46.0 °F 65% 29.87 in 10.0 mi SSW 3.5 mph - N/A   Scattered Clouds
4:52 AM 53.6 °F 46.4 °F 77% 29.90 in 10.0 mi South 3.5 mph - N/A   Scattered Clouds
5:52 AM 55.9 °F 45.0 °F 67% 29.89 in 10.0 mi SSW 3.5 mph - N/A   Mostly Cloudy
6:52 AM 55.9 °F 44.1 °F 64% 29.89 in 10.0 mi Calm Calm - N/A   Mostly Cloudy
7:52 AM 52.0 °F 46.0 °F 80% 29.89 in 10.0 mi South 3.5 mph - N/A   Mostly Cloudy
8:52 AM 59.0 °F 48.0 °F 67% 29.90 in 10.0 mi Calm Calm - N/A   Mostly Cloudy
9:52 AM 66.9 °F 46.0 °F 47% 29.90 in 10.0 mi SSW 4.6 mph - N/A   Overcast
10:52 AM 73.0 °F 46.0 °F 38% 29.90 in 10.0 mi WSW 3.5 mph - N/A   Mostly Cloudy
11:52 AM 78.1 °F 45.0 °F 31% 29.89 in 10.0 mi SW 5.8 mph - N/A   Mostly Cloudy
12:52 PM 82.0 °F 45.0 °F 27% 29.88 in 10.0 mi WSW 8.1 mph - N/A   Mostly Cloudy
1:52 PM 84.9 °F 46.9 °F 27% 29.86 in 10.0 mi West 10.4 mph - N/A   Mostly Cloudy
2:52 PM 84.2 °F 44.6 °F 25% 29.85 in 10.0 mi WSW 10.4 mph 16.1 mph N/A   Mostly Cloudy
3:52 PM 86.0 °F 42.1 °F 21% 29.82 in 10.0 mi WNW 11.5 mph - N/A   Mostly Cloudy
4:52 PM 84.0 °F 43.0 °F 24% 29.82 in 10.0 mi West 12.7 mph - N/A   Mostly Cloudy
5:52 PM 82.9 °F 45.0 °F 26% 29.81 in 10.0 mi WNW 9.2 mph - N/A   Mostly Cloudy
6:52 PM 79.0 °F 45.0 °F 30% 29.82 in 10.0 mi West 3.5 mph - N/A   Mostly Cloudy
7:52 PM 73.9 °F 46.0 °F 37% 29.83 in 10.0 mi West 3.5 mph - N/A   Overcast
8:52 PM 66.9 °F 46.9 °F 49% 29.83 in 10.0 mi SW 3.5 mph - N/A   Mostly Cloudy
9:52 PM 64.0 °F 46.9 °F 54% 29.84 in 10.0 mi Calm Calm - N/A   Mostly Cloudy
10:52 PM 63.0 °F 46.9 °F 56% 29.84 in 10.0 mi WSW 3.5 mph - N/A   Mostly Cloudy
11:52 PM 60.1 °F 48.9 °F 67% 29.84 in 10.0 mi Calm Calm - N/A   Mostly Cloudy